Voltar ao catálogo

BREEZE-M DEB

TANK

AtivoHEO
NORAD 39165·DEBRIS·🇷🇺 Russia

Lançado May 14, 2013 de Baikonur Cosmodrome

Loading…

Próximas Passagens (próximas 24 horas)

TLE

AtualizadoSource: Space-Track

Época: Sep 14, 2026, 07:28 UTC

1 39165U 13022C   26257.31134138  .00001323  00000-0  48668-3 0  9992
2 39165  49.4878 235.4930 5542613 142.7536 273.1098  4.70521439221578

Acompanhe BREEZE-M DEB em tempo real com AllMySat

Download on the App Store